Voltar ao catálogo

STARLINK-35833

AtivoComunicaçõesVLEO
NORAD 66542·PAYLOAD·🇺🇸 United States

Lançado Nov 19, 2025 de Cape Canaveral Space Force Station

Loading…

Próximas Passagens (próximas 24 horas)

TLE

AtualizadoSource: CelesTrak SupGP

Época: Sep 14, 2026, 23:01 UTC

1 66542C 25265AC  26257.95951389  .00032813  00000+0  11871-2 0  2577
2 66542  43.0023 289.5088 0001696 274.9109 111.9060 15.27600402    17

Acompanhe STARLINK-35833 em tempo real com AllMySat

Download on the App Store